Total_Precipitation_Accumulation
1.66 1.85 1.43 0.89 0.68 0.59 0.53 0.42 0.35 0.31 0.36 0.45 0.41 0.35 0.41 0.44 0.52 0.52 0.52 0.55 0.61 0.80 0.94 1.11 1.39 1.73 2.03 2.20 2.49 2.64 2.89 3.07 3.10 3.01 2.71 2.41 2.22 2.14 2.01 1.77 1.58 1.51 1.43 1.32
1.59 1.39 0.80 0.58 0.64 0.68 0.67 0.59 0.43 0.33 0.29 0.41 0.42 0.37 0.38 0.41 0.48 0.50 0.51 0.50 0.53 0.61 0.75 0.92 1.25 1.43 1.66 1.92 2.11 2.40 2.48 2.77 2.80 2.71 2.65 2.50 2.43 2.35 2.26 2.09 1.82 1.63 1.57 1.45
1.19 0.84 0.65 0.72 0.83 0.83 0.70 0.59 0.49 0.43 0.38 0.46 0.51 0.48 0.38 0.37 0.39 0.38 0.39 0.39 0.45 0.50 0.57 0.72 0.99 1.23 1.36 1.61 1.91 2.05 2.16 2.39 2.64 2.68 2.77 2.85 2.80 2.54 2.28 2.13 2.04 1.87 1.74 1.63
1.04 0.72 0.76 0.82 0.79 0.77 0.71 0.43 0.47 0.52 0.65 0.63 0.49 0.62 0.42 0.33 0.32 0.33 0.35 0.32 0.36 0.44 0.48 0.57 0.67 0.88 1.06 1.24 1.62 1.95 2.13 2.26 2.46 2.75 2.72 2.61 2.47 2.28 2.03 2.02 2.09 2.08 1.93 1.79
1.04 0.76 0.84 0.86 0.60 0.60 0.64 0.44 0.51 0.60 0.72 0.71 0.44 0.49 0.40 0.26 0.29 0.31 0.34 0.33 0.39 0.50 0.54 0.54 0.57 0.68 0.86 1.02 1.32 1.64 1.90 2.19 2.39 2.52 2.54 2.56 2.37 2.19 2.15 2.06 2.04 1.97 1.87 1.79
0.76 0.74 0.91 0.78 0.53 0.58 0.71 0.74 0.79 0.83 1.05 1.03 0.41 0.39 0.37 0.28 0.30 0.33 0.33 0.33 0.40 0.49 0.55 0.53 0.54 0.63 0.77 0.87 1.05 1.36 1.62 1.77 2.02 2.27 2.32 2.33 2.31 2.29 2.25 2.04 1.94 1.94 1.93 1.85
1.02 0.88 0.86 0.86 0.87 0.88 1.03 1.43 1.86 1.76 1.49 0.79 0.27 0.30 0.30 0.25 0.32 0.36 0.35 0.38 0.40 0.42 0.45 0.45 0.50 0.57 0.70 0.83 0.95 1.08 1.26 1.39 1.56 1.77 1.90 1.94 2.07 2.19 2.11 1.98 1.81 1.77 1.75 1.70
1.11 1.10 0.84 0.97 1.04 1.07 1.00 1.20 1.43 1.18 0.71 0.37 0.22 0.25 0.23 0.24 0.34 0.38 0.37 0.37 0.36 0.40 0.43 0.42 0.41 0.47 0.59 0.70 0.83 0.92 1.01 1.12 1.29 1.44 1.56 1.67 1.80 1.98 1.99 1.94 1.75 1.61 1.54 1.54
0.88 0.89 0.65 0.78 0.80 0.80 0.92 0.90 0.78 0.98 0.64 0.37 0.23 0.17 0.15 0.17 0.23 0.31 0.32 0.30 0.30 0.39 0.42 0.39 0.39 0.41 0.50 0.57 0.65 0.76 0.88 0.97 1.07 1.21 1.36 1.48 1.57 1.64 1.71 1.78 1.77 1.61 1.52 1.49
0.82 0.95 0.72 0.80 0.99 0.89 0.77 0.73 0.92 1.30 1.01 0.54 0.22 0.13 0.18 0.20 0.21 0.28 0.31 0.34 0.36 0.41 0.40 0.37 0.39 0.44 0.49 0.51 0.54 0.64 0.81 0.86 0.89 0.99 1.10 1.21 1.32 1.46 1.53 1.56 1.56 1.50 1.45 1.44
0.85 1.10 0.93 0.98 1.11 0.82 0.71 0.89 1.03 1.03 0.77 0.65 0.41 0.27 0.25 0.24 0.22 0.25 0.30 0.33 0.37 0.41 0.41 0.41 0.45 0.52 0.56 0.52 0.54 0.61 0.71 0.82 0.88 0.92 0.97 1.00 1.01 1.10 1.26 1.38 1.39 1.39 1.36 1.34
0.85 1.16 1.00 0.81 0.63 0.54 0.55 0.57 0.77 1.10 0.80 0.55 0.49 0.38 0.26 0.25 0.22 0.23 0.28 0.31 0.34 0.36 0.38 0.43 0.51 0.53 0.55 0.57 0.60 0.64 0.67 0.75 0.86 0.89 0.91 0.94 0.95 0.94 1.03 1.13 1.25 1.32 1.38 1.30
0.92 1.30 1.20 1.02 0.86 0.76 0.71 0.50 0.56 0.88 1.10 0.82 0.66 0.43 0.27 0.23 0.23 0.23 0.26 0.30 0.33 0.36 0.36 0.38 0.45 0.51 0.52 0.56 0.65 0.69 0.73 0.74 0.76 0.80 0.81 0.81 0.81 0.81 0.86 0.92 1.04 1.11 1.21 1.21
1.11 1.25 1.07 0.93 0.80 0.74 0.66 0.48 0.55 1.07 1.29 0.77 0.49 0.39 0.27 0.24 0.26 0.24 0.27 0.32 0.35 0.35 0.34 0.35 0.41 0.45 0.49 0.54 0.58 0.59 0.67 0.69 0.71 0.71 0.77 0.77 0.73 0.72 0.77 0.86 0.91 0.97 1.02 1.09
1.12 1.28 0.84 0.58 0.44 0.50 0.50 0.39 0.46 0.77 0.77 0.79 0.48 0.35 0.35 0.32 0.29 0.25 0.27 0.28 0.28 0.29 0.30 0.35 0.38 0.42 0.45 0.43 0.42 0.45 0.52 0.59 0.61 0.64 0.73 0.77 0.77 0.79 0.88 0.92 0.88 0.90 0.93 0.99
0.85 1.08 0.85 0.62 0.37 0.37 0.41 0.32 0.36 0.45 0.47 0.52 0.41 0.38 0.28 0.27 0.24 0.23 0.25 0.23 0.21 0.23 0.24 0.26 0.31 0.38 0.40 0.39 0.38 0.38 0.42 0.47 0.49 0.51 0.57 0.66 0.73 0.80 0.89 0.95 0.93 0.89 0.88 0.94
0.71 0.87 0.95 0.64 0.33 0.44 0.51 0.38 0.41 0.43 0.41 0.46 0.50 0.41 0.26 0.25 0.23 0.23 0.23 0.20 0.18 0.18 0.18 0.19 0.22 0.28 0.30 0.30 0.33 0.35 0.37 0.41 0.44 0.44 0.46 0.54 0.67 0.77 0.81 0.87 0.91 0.91 0.92 1.02
0.53 0.73 1.01 0.75 0.54 0.65 0.38 0.24 0.30 0.36 0.40 0.40 0.38 0.28 0.20 0.22 0.23 0.22 0.22 0.19 0.16 0.15 0.15 0.15 0.18 0.21 0.22 0.23 0.26 0.27 0.29 0.35 0.43 0.47 0.50 0.55 0.62 0.72 0.82 0.86 0.91 0.96 0.98 1.06
0.33 0.68 1.08 0.91 0.70 0.41 0.20 0.15 0.22 0.34 0.39 0.27 0.23 0.19 0.14 0.14 0.17 0.17 0.18 0.16 0.15 0.16 0.15 0.15 0.16 0.17 0.17 0.19 0.22 0.23 0.24 0.30 0.38 0.44 0.50 0.51 0.57 0.66 0.77 0.87 0.94 0.99 1.03 1.07
0.33 0.61 1.15 1.02 0.82 0.47 0.25 0.11 0.13 0.29 0.50 0.22 0.16 0.15 0.13 0.14 0.22 0.19 0.16 0.16 0.14 0.14 0.19 0.18 0.17 0.17 0.17 0.19 0.21 0.24 0.26 0.31 0.38 0.42 0.47 0.49 0.53 0.61 0.71 0.81 0.90 0.95 0.97 0.98
0.47 0.79 1.03 0.87 0.79 0.39 0.20 0.10 0.13 0.45 0.61 0.25 0.17 0.15 0.16 0.19 0.21 0.17 0.13 0.13 0.14 0.15 0.19 0.24 0.26 0.26 0.27 0.29 0.31 0.32 0.33 0.37 0.40 0.43 0.48 0.51 0.54 0.60 0.68 0.73 0.76 0.78 0.78 0.76
0.36 0.50 0.54 0.58 0.76 0.49 0.24 0.20 0.34 0.45 0.29 0.22 0.20 0.19 0.23 0.24 0.21 0.18 0.16 0.14 0.15 0.18 0.22 0.27 0.32 0.34 0.36 0.37 0.38 0.39 0.41 0.43 0.43 0.45 0.49 0.54 0.55 0.55 0.55 0.58 0.62 0.60 0.60 0.59
0.34 0.45 0.48 0.48 0.53 0.42 0.33 0.37 0.39 0.34 0.28 0.24 0.23 0.22 0.24 0.30 0.30 0.27 0.24 0.21 0.20 0.21 0.24 0.27 0.30 0.32 0.33 0.36 0.41 0.44 0.45 0.43 0.42 0.45 0.47 0.47 0.48 0.47 0.48 0.48 0.49 0.51 0.53 0.54
0.33 0.33 0.41 0.42 0.40 0.33 0.30 0.30 0.27 0.26 0.26 0.25 0.25 0.26 0.26 0.28 0.31 0.30 0.30 0.28 0.28 0.27 0.24 0.24 0.25 0.26 0.28 0.30 0.33 0.37 0.37 0.37 0.35 0.38 0.37 0.37 0.37 0.39 0.40 0.41 0.43 0.46 0.48 0.48
0.33 0.32 0.37 0.39 0.32 0.25 0.24 0.23 0.22 0.19 0.18 0.18 0.20 0.22 0.23 0.24 0.27 0.29 0.29 0.27 0.27 0.26 0.24 0.22 0.21 0.22 0.23 0.24 0.26 0.28 0.29 0.29 0.29 0.30 0.28 0.28 0.29 0.34 0.38 0.38 0.39 0.43 0.45 0.50
0.30 0.33 0.40 0.43 0.31 0.29 0.29 0.24 0.21 0.19 0.19 0.19 0.19 0.21 0.20 0.21 0.25 0.25 0.25 0.24 0.24 0.25 0.24 0.21 0.19 0.20 0.20 0.19 0.20 0.20 0.23 0.25 0.27 0.27 0.26 0.26 0.25 0.29 0.36 0.39 0.39 0.43 0.47 0.53